ZHONGXING-11

Last updated on Fri Jul 10 2026 00:03:03 GMT+0000 (Coordinated Universal Time)

1 39157U 13020A 26190.30310631 -.00000277 00000+0 00000+0 0 9991 2 39157 0.0207 36.1404 0002369 47.0025 51.1354 1.00271609 48122
UTC large
Height (km)
Speed (km/s)
/
Latitude / Longitude
Inclination (degrees)
Orbital Period (minutes)
Azimuth
Elevation
Range (km)
Doppler Factor

Next 0 passes for location: London (51.5072 / 0.1276)

No passes found over London.
ZHONGXING-11